| time (UTC) | temp C | wind direction | speed KPH | gust KPH | rain 1hr cm | rain 24hr cm | rain mn cm | humidity % | barometer mb |
| 20260906052334 | 23 | 89 | 0.0 | 3.2 | 0.00 | 0.00 | 0.00 | 86 | 1014.3 |
| 20260906051831 | 23 | 68 | 0.0 | 3.2 | 0.00 | 0.00 | 0.00 | 86 | 1014.7 |
| 20260906051330 | 23 | 43 | 3.2 | 3.2 | 0.00 | 0.00 | 0.00 | 86 | 1014.6 |
| 20260906050826 | 23 | 17 | 0.0 | 3.2 | 0.00 | 0.00 | 0.00 | 86 | 1014.4 |
| 20260906050321 | 23 | 58 | 1.6 | 1.6 | 0.00 | 0.00 | 0.00 | 86 | 1014.5 |
| 20260906045819 | 23 | 72 | 1.6 | 4.8 | 0.00 | 0.00 | 0.00 | 86 | 1014.6 |
| 20260906045314 | 23 | 68 | 1.6 | 1.6 | 0.00 | 0.00 | 0.00 | 86 | 1014.7 |
| 20260906044811 | 23 | 33 | 3.2 | 3.2 | 0.00 | 0.00 | 0.00 | 86 | 1014.4 |
| 20260906044305 | 24 | 89 | 0.0 | 3.2 | 0.00 | 0.00 | 0.00 | 86 | 1014.4 |
| 20260906043801 | 24 | 55 | 0.0 | 3.2 | 0.00 | 0.00 | 0.00 | 86 | 1014.4 |
| 20260906043257 | 24 | 28 | 1.6 | 1.6 | 0.00 | 0.00 | 0.00 | 86 | 1014.3 |
| 20260906042756 | 24 | 75 | 0.0 | 1.6 | 0.00 | 0.00 | 0.00 | 86 | 1014.3 |
| 20260906042256 | 24 | 69 | 1.6 | 1.6 | 0.00 | 0.00 | 0.00 | 86 | 1014.2 |
| 20260906041751 | 24 | 40 | 3.2 | 3.2 | 0.00 | 0.00 | 0.00 | 86 | 1014.3 |
| 20260906041246 | 24 | 103 | 3.2 | 3.2 | 0.00 | 0.00 | 0.00 | 86 | 1014.3 |
| 20260906040742 | 24 | 50 | 0.0 | 0.0 | 0.00 | 0.00 | 0.00 | 86 | 1014.3 |
| 20260906040237 | 24 | 73 | 1.6 | 3.2 | 0.00 | 0.00 | 0.00 | 85 | 1014.3 |
| 20260906035732 | 24 | 63 | 1.6 | 1.6 | 0.00 | 0.28 | 0.28 | 85 | 1014.2 |
| 20260906035228 | 24 | 354 | 0.0 | 3.2 | 0.00 | 0.28 | 0.28 | 85 | 1014.1 |
| 20260906034727 | 24 | 32 | 1.6 | 3.2 | 0.00 | 0.28 | 0.28 | 84 | 1014.2 |
| 20260906034223 | 24 | 32 | 0.0 | 3.2 | 0.00 | 0.28 | 0.28 | 84 | 1013.9 |
| 20260906033718 | 24 | 66 | 3.2 | 3.2 | 0.00 | 0.28 | 0.28 | 84 | 1014.2 |
| 20260906033218 | 25 | 102 | 3.2 | 3.2 | 0.00 | 0.28 | 0.28 | 84 | 1014.1 |
| 20260906032715 | 25 | 23 | 3.2 | 3.2 | 0.00 | 0.28 | 0.28 | 83 | 1013.8 |
| 20260906032215 | 25 | 33 | 0.0 | 3.2 | 0.00 | 0.28 | 0.28 | 83 | 1014.2 |
| 20260906031710 | 25 | 98 | 1.6 | 4.8 | 0.00 | 0.28 | 0.28 | 83 | 1014.2 |
| 20260906031206 | 25 | 54 | 1.6 | 3.2 | 0.00 | 0.28 | 0.28 | 83 | 1014.1 |
| 20260906030705 | 25 | 65 | 0.0 | 3.2 | 0.00 | 0.28 | 0.28 | 83 | 1014.2 |
| 20260906030200 | 25 | 110 | 0.0 | 4.8 | 0.00 | 0.28 | 0.28 | 83 | 1013.9 |
| 20260906025700 | 25 | 106 | 3.2 | 3.2 | 0.00 | 0.28 | 0.28 | 82 | 1013.7 |
| 20260906025159 | 25 | 106 | 3.2 | 3.2 | 0.00 | 0.28 | 0.28 | 82 | 1013.8 |
| 20260906024654 | 25 | 48 | 0.0 | 3.2 | 0.00 | 0.28 | 0.28 | 81 | 1013.9 |
| 20260906024153 | 25 | 39 | 3.2 | 3.2 | 0.00 | 0.28 | 0.28 | 81 | 1013.7 |
| 20260906023649 | 25 | 1 | 1.6 | 6.4 | 0.00 | 0.28 | 0.28 | 80 | 1013.9 |
| 20260906023149 | 25 | 98 | 1.6 | 3.2 | 0.00 | 0.28 | 0.28 | 79 | 1013.9 |
| 20260906022644 | 26 | 83 | 4.8 | 6.4 | 0.00 | 0.28 | 0.28 | 79 | 1013.8 |
| 20260906022140 | 26 | 43 | 3.2 | 3.2 | 0.00 | 0.28 | 0.28 | 78 | 1013.7 |
| 20260906021636 | -17 | 0.0 | 0.0 | 0.00 | 0.28 | 0.28 | 1013.5 | ||
| 20260906021134 | -17 | 0.0 | 0.0 | 0.00 | 0.28 | 0.28 | 1013.4 | ||
| 20260906020629 | -17 | 0.0 | 0.0 | 0.00 | 0.28 | 0.28 | 1013.5 | ||
| 20260906020123 | 26 | 85 | 0.0 | 3.2 | 0.00 | 0.28 | 0.28 | 74 | 1013.2 |
| 20260906015619 | 26 | 85 | 0.0 | 3.2 | 0.00 | 0.28 | 0.28 | 74 | 1013.5 |
| 20260906015117 | 26 | 25 | 0.0 | 1.6 | 0.00 | 0.28 | 0.28 | 74 | 1013.3 |
| 20260906014612 | 26 | 89 | 0.0 | 1.6 | 0.00 | 0.28 | 0.28 | 74 | 1013.1 |
| 20260906014109 | 26 | 75 | 0.0 | 0.0 | 0.00 | 0.28 | 0.28 | 74 | 1013.1 |
| 20260906013603 | 26 | 28 | 0.0 | 1.6 | 0.00 | 0.28 | 0.28 | 74 | 1013.0 |
| 20260906013059 | 26 | 89 | 0.0 | 1.6 | 0.00 | 0.28 | 0.28 | 74 | 1013.0 |
| 20260906012559 | 26 | 89 | 0.0 | 1.6 | 0.00 | 0.28 | 0.28 | 74 | 1012.6 |
| 20260906012059 | -17 | 0.0 | 0.0 | 0.00 | 0.28 | 0.28 | 1012.8 | ||
| 20260906011555 | -17 | 0.0 | 0.0 | 0.00 | 0.28 | 0.28 | 1012.7 | ||
| 20260906011054 | -17 | 0.0 | 0.0 | 0.00 | 0.28 | 0.28 | 1012.8 | ||
| 20260906010550 | -17 | 0.0 | 0.0 | 0.00 | 0.28 | 0.28 | 1012.7 | ||
| 20260906010046 | -17 | 0.0 | 0.0 | 0.00 | 0.28 | 0.28 | 1012.7 | ||
| 20260906005545 | 27 | 103 | 0.0 | 0.0 | 0.00 | 0.28 | 0.28 | 73 | 1012.5 |
| 20260906005044 | 27 | 103 | 0.0 | 0.0 | 0.00 | 0.28 | 0.28 | 73 | 1012.5 |
| 20260906004544 | 27 | 103 | 0.0 | 0.0 | 0.00 | 0.28 | 0.28 | 73 | 1012.4 |
| 20260906004039 | 27 | 116 | 0.0 | 1.6 | 0.00 | 0.28 | 0.28 | 72 | 1012.3 |
| 20260906003534 | 27 | 116 | 0.0 | 1.6 | 0.00 | 0.28 | 0.28 | 72 | 1012.2 |
| 20260906003030 | 28 | 117 | 0.0 | 0.0 | 0.00 | 0.28 | 0.28 | 70 | 1012.1 |
| 20260906002525 | 28 | 117 | 0.0 | 0.0 | 0.00 | 0.28 | 0.28 | 70 | 1012.2 |
| 20260906002019 | 28 | 89 | 0.0 | 1.6 | 0.00 | 0.28 | 0.28 | 70 | 1012.0 |
| 20260906001516 | 28 | 38 | 0.0 | 1.6 | 0.00 | 0.28 | 0.28 | 69 | 1012.1 |
| 20260906001015 | 28 | 110 | 3.2 | 3.2 | 0.00 | 0.28 | 0.28 | 68 | 1011.9 |
| 20260906000511 | 29 | 50 | 0.0 | 3.2 | 0.00 | 0.28 | 0.28 | 67 | 1012.0 |
| 20260906000006 | 29 | 65 | 0.0 | 1.6 | 0.00 | 0.28 | 0.28 | 66 | 1012.1 |
| 20260905235505 | 30 | 29 | 0.0 | 3.2 | 0.00 | 0.28 | 0.28 | 65 | 1012.0 |
| 20260905235000 | 30 | 56 | 0.0 | 1.6 | 0.00 | 0.28 | 0.28 | 65 | 1012.1 |
| 20260905234456 | 30 | 38 | 0.0 | 0.0 | 0.00 | 0.28 | 0.28 | 64 | 1012.1 |
| 20260905233955 | 30 | 142 | 0.0 | 3.2 | 0.00 | 0.28 | 0.28 | 63 | 1012.2 |
| 20260905233452 | 30 | 31 | 0.0 | 3.2 | 0.00 | 0.28 | 0.28 | 61 | 1012.2 |
| 20260905232950 | 30 | 35 | 0.0 | 1.6 | 0.00 | 0.28 | 0.28 | 61 | 1012.3 |
| 20260905232447 | 31 | 44 | 0.0 | 1.6 | 0.00 | 0.28 | 0.28 | 60 | 1012.1 |
| 20260905231942 | 31 | 37 | 0.0 | 1.6 | 0.00 | 0.28 | 0.28 | 59 | 1012.1 |
| 20260905231438 | 31 | 164 | 0.0 | 0.0 | 0.00 | 0.28 | 0.28 | 57 | 1011.9 |
| 20260905230934 | 31 | 350 | 0.0 | 1.6 | 0.00 | 0.28 | 0.28 | 55 | 1012.1 |
| 20260905230432 | 31 | 304 | 0.0 | 1.6 | 0.00 | 0.28 | 0.28 | 55 | 1012.1 |
| 20260905225931 | 31 | 103 | 0.0 | 0.0 | 0.00 | 0.28 | 0.28 | 54 | 1011.9 |
| 20260905225426 | 31 | 124 | 0.0 | 1.6 | 0.00 | 0.28 | 0.28 | 55 | 1012.1 |
| 20260905224921 | 31 | 103 | 0.0 | 0.0 | 0.00 | 0.28 | 0.28 | 57 | 1011.9 |
| 20260905224417 | 31 | 77 | 0.0 | 1.6 | 0.00 | 0.28 | 0.28 | 58 | 1011.9 |
| 20260905223916 | 32 | 255 | 3.2 | 4.8 | 0.00 | 0.28 | 0.28 | 59 | 1011.8 |
| 20260905223415 | 32 | 34 | 0.0 | 4.8 | 0.00 | 0.28 | 0.28 | 61 | 1011.6 |
| 20260905222914 | 32 | 197 | 0.0 | 4.8 | 0.00 | 0.28 | 0.28 | 60 | 1011.5 |
| 20260905222414 | 32 | 47 | 0.0 | 3.2 | 0.00 | 0.28 | 0.28 | 60 | 1011.8 |
| 20260905221909 | 32 | 53 | 0.0 | 3.2 | 0.00 | 0.28 | 0.28 | 59 | 1011.9 |
| 20260905221406 | 33 | 38 | 1.6 | 3.2 | 0.00 | 0.28 | 0.28 | 58 | 1011.9 |
| 20260905220902 | 32 | 53 | 0.0 | 3.2 | 0.00 | 0.28 | 0.28 | 60 | 1011.7 |
| 20260905220358 | -17 | 0.0 | 0.0 | 0.00 | 0.28 | 0.28 | 1011.8 | ||
| 20260905215857 | -17 | 0.0 | 0.0 | 0.00 | 0.28 | 0.28 | 1011.2 | ||
| 20260905215353 | 31 | 142 | 0.0 | 1.6 | 0.00 | 0.28 | 0.28 | 60 | 1011.2 |
| 20260905214849 | 31 | 142 | 0.0 | 1.6 | 0.00 | 0.28 | 0.28 | 60 | 1011.5 |
| 20260905214344 | 31 | 142 | 0.0 | 1.6 | 0.00 | 0.28 | 0.28 | 60 | 1011.7 |
| 20260905213839 | 31 | 0 | 0.0 | 0.0 | 0.00 | 0.28 | 0.28 | 61 | 1011.8 |
| 20260905213335 | 31 | 144 | 0.0 | 0.0 | 0.00 | 0.28 | 0.28 | 60 | 1012.1 |
| 20260905212830 | -17 | 0.0 | 0.0 | 0.00 | 0.28 | 0.28 | 1011.9 | ||
| 20260905212329 | -17 | 0.0 | 0.0 | 0.00 | 0.28 | 0.28 | 1011.7 | ||
| 20260905211824 | -17 | 0.0 | 0.0 | 0.00 | 0.28 | 0.28 | 1012.0 | ||
| 20260905211320 | -17 | 0.0 | 0.0 | 0.00 | 0.28 | 0.28 | 1011.7 | ||
| 20260905210816 | -17 | 0.0 | 0.0 | 0.00 | 0.28 | 0.28 | 1011.4 | ||
| 20260905210316 | -17 | 0.0 | 0.0 | 0.00 | 0.28 | 0.28 | 1012.0 | ||
| 20260905205814 | -17 | 0.0 | 0.0 | 0.00 | 0.28 | 0.28 | 1011.9 | ||
| 20260905205309 | 34 | 358 | 1.6 | 3.2 | 0.00 | 0.28 | 0.28 | 54 | 1011.9 |
| 20260905204808 | 34 | 358 | 1.6 | 3.2 | 0.00 | 0.28 | 0.28 | 54 | 1011.8 |
| 20260905204305 | 35 | 224 | 0.0 | 0.0 | 0.00 | 0.28 | 0.28 | 54 | 1012.2 |
| 20260905203803 | 35 | 156 | 0.0 | 0.0 | 0.00 | 0.28 | 0.28 | 55 | 1011.9 |
| 20260905203259 | 35 | 284 | 0.0 | 1.6 | 0.00 | 0.28 | 0.28 | 50 | 1012.1 |
| 20260905202755 | 35 | 322 | 0.0 | 0.0 | 0.00 | 0.28 | 0.28 | 53 | 1012.1 |
| 20260905202250 | 35 | 297 | 0.0 | 0.0 | 0.00 | 0.28 | 0.28 | 54 | 1012.1 |
| 20260905201745 | 35 | 107 | 0.0 | 3.2 | 0.00 | 0.28 | 0.28 | 51 | 1012.3 |
| 20260905201240 | 33 | 104 | 0.0 | 4.8 | 0.00 | 0.28 | 0.28 | 53 | 1012.2 |
| 20260905200735 | 34 | 264 | 0.0 | 4.8 | 0.00 | 0.28 | 0.28 | 52 | 1012.3 |
| 20260905200231 | 34 | 105 | 0.0 | 3.2 | 0.00 | 0.28 | 0.28 | 52 | 1012.4 |
| 20260905195729 | 34 | 32 | 0.0 | 1.6 | 0.00 | 0.28 | 0.28 | 53 | 1012.2 |
| 20260905195224 | 35 | 325 | 3.2 | 3.2 | 0.00 | 0.28 | 0.28 | 50 | 1012.3 |
| 20260905194720 | 36 | 283 | 0.0 | 3.2 | 0.00 | 0.28 | 0.28 | 52 | 1012.3 |
| 20260905194219 | 35 | 283 | 0.0 | 1.6 | 0.00 | 0.28 | 0.28 | 53 | 1012.6 |
| 20260905193718 | 34 | 125 | 3.2 | 3.2 | 0.00 | 0.28 | 0.28 | 53 | 1012.4 |
| 20260905193214 | 34 | 24 | 0.0 | 1.6 | 0.00 | 0.28 | 0.28 | 54 | 1012.6 |
| 20260905192709 | 34 | 283 | 0.0 | 3.2 | 0.00 | 0.28 | 0.28 | 52 | 1012.6 |
| 20260905192206 | 35 | 284 | 1.6 | 1.6 | 0.00 | 0.28 | 0.28 | 52 | 1012.4 |
| 20260905191705 | 35 | 105 | 1.6 | 4.8 | 0.00 | 0.28 | 0.28 | 51 | 1012.7 |
| 20260905191203 | 34 | 123 | 3.2 | 6.4 | 0.00 | 0.28 | 0.28 | 51 | 1012.5 |
| 20260905190702 | 34 | 319 | 1.6 | 3.2 | 0.00 | 0.28 | 0.28 | 51 | 1012.8 |
| 20260905190201 | 34 | 262 | 3.2 | 3.2 | 0.00 | 0.28 | 0.28 | 51 | 1012.9 |
| 20260905185700 | 34 | 32 | 0.0 | 3.2 | 0.00 | 0.28 | 0.28 | 54 | 1013.0 |
| 20260905185156 | 34 | 136 | 1.6 | 6.4 | 0.00 | 0.28 | 0.28 | 50 | 1013.1 |
| 20260905184655 | 33 | 168 | 0.0 | 3.2 | 0.00 | 0.28 | 0.28 | 51 | 1013.1 |
| 20260905184154 | 34 | 255 | 0.0 | 3.2 | 0.00 | 0.28 | 0.28 | 51 | 1013.5 |
| 20260905183654 | 34 | 293 | 0.0 | 4.8 | 0.00 | 0.28 | 0.28 | 53 | 1013.3 |
| 20260905183148 | 33 | 60 | 1.6 | 1.6 | 0.00 | 0.28 | 0.28 | 51 | 1013.4 |
| 20260905182648 | 33 | 249 | 0.0 | 3.2 | 0.00 | 0.28 | 0.28 | 50 | 1013.4 |
| 20260905182148 | 33 | 224 | 0.0 | 3.2 | 0.00 | 0.28 | 0.28 | 53 | 1013.4 |
| 20260905181644 | 33 | 261 | 3.2 | 3.2 | 0.00 | 0.28 | 0.28 | 51 | 1013.5 |
| 20260905181142 | 33 | 237 | 0.0 | 3.2 | 0.00 | 0.28 | 0.28 | 51 | 1013.5 |
| 20260905180637 | 33 | 191 | 3.2 | 4.8 | 0.00 | 0.28 | 0.28 | 49 | 1013.5 |
| 20260905180133 | 33 | 269 | 0.0 | 3.2 | 0.00 | 0.28 | 0.28 | 51 | 1013.5 |
| 20260905175632 | 33 | 293 | 0.0 | 1.6 | 0.00 | 0.28 | 0.28 | 55 | 1013.5 |
| 20260905175127 | 33 | 128 | 1.6 | 3.2 | 0.00 | 0.28 | 0.28 | 51 | 1013.7 |
| 20260905174623 | 32 | 317 | 1.6 | 4.8 | 0.00 | 0.28 | 0.28 | 54 | 1013.7 |
| 20260905174118 | 32 | 302 | 1.6 | 4.8 | 0.00 | 0.28 | 0.28 | 55 | 1013.9 |
| 20260905173614 | 32 | 349 | 0.0 | 3.2 | 0.00 | 0.28 | 0.28 | 55 | 1013.9 |
| 20260905173110 | 32 | 336 | 0.0 | 3.2 | 0.00 | 0.28 | 0.28 | 53 | 1014.1 |
| 20260905172608 | 31 | 19 | 0.0 | 1.6 | 0.00 | 0.28 | 0.28 | 58 | 1014.2 |
| 20260905172103 | 31 | 113 | 0.0 | 1.6 | 0.00 | 0.28 | 0.28 | 57 | 1014.3 |
| 20260905171600 | 30 | 199 | 3.2 | 4.8 | 0.00 | 0.28 | 0.28 | 55 | 1014.3 |
| 20260905171056 | 30 | 105 | 0.0 | 1.6 | 0.00 | 0.28 | 0.28 | 56 | 1014.4 |
| 20260905170552 | 30 | 93 | 0.0 | 8.0 | 0.00 | 0.28 | 0.28 | 58 | 1014.2 |
| 20260905170047 | 30 | 89 | 0.0 | 3.2 | 0.00 | 0.28 | 0.28 | 56 | 1014.3 |
| 20260905165542 | 30 | 219 | 0.0 | 3.2 | 0.00 | 0.28 | 0.28 | 57 | 1014.5 |
| 20260905165037 | 30 | 46 | 0.0 | 4.8 | 0.00 | 0.28 | 0.28 | 57 | 1014.8 |
| 20260905164537 | 29 | 283 | 0.0 | 3.2 | 0.00 | 0.28 | 0.28 | 58 | 1014.7 |
| 20260905164032 | 29 | 104 | 0.0 | 1.6 | 0.00 | 0.28 | 0.28 | 58 | 1014.6 |
| 20260905163528 | 29 | 23 | 3.2 | 3.2 | 0.00 | 0.28 | 0.28 | 60 | 1014.7 |
| 20260905163024 | 29 | 216 | 0.0 | 3.2 | 0.00 | 0.28 | 0.28 | 58 | 1014.7 |
| 20260905162520 | 29 | 106 | 1.6 | 1.6 | 0.00 | 0.28 | 0.28 | 60 | 1014.7 |
| 20260905162014 | 28 | 35 | 3.2 | 3.2 | 0.00 | 0.28 | 0.28 | 60 | 1014.8 |
| 20260905161514 | 28 | 307 | 1.6 | 3.2 | 0.00 | 0.28 | 0.28 | 59 | 1014.7 |
| 20260905161012 | 28 | 151 | 0.0 | 1.6 | 0.00 | 0.28 | 0.28 | 61 | 1014.8 |
| 20260905160511 | 28 | 227 | 0.0 | 0.0 | 0.00 | 0.28 | 0.28 | 62 | 1014.7 |
| 20260905160006 | 28 | 32 | 0.0 | 3.2 | 0.00 | 0.28 | 0.28 | 63 | 1015.0 |
| 20260905155505 | 28 | 32 | 0.0 | 4.8 | 0.00 | 0.28 | 0.28 | 63 | 1015.0 |
| 20260905155004 | 27 | 85 | 0.0 | 3.2 | 0.00 | 0.28 | 0.28 | 62 | 1014.9 |
| 20260905154459 | 27 | 85 | 0.0 | 3.2 | 0.00 | 0.28 | 0.28 | 62 | 1014.8 |
| 20260905153955 | 27 | 41 | 0.0 | 3.2 | 0.00 | 0.28 | 0.28 | 61 | 1014.9 |
| 20260905153451 | 27 | 233 | 0.0 | 3.2 | 0.00 | 0.28 | 0.28 | 63 | 1015.0 |
| 20260905152950 | 27 | 119 | 1.6 | 3.2 | 0.00 | 0.28 | 0.28 | 62 | 1015.0 |
| 20260905152450 | 27 | 124 | 3.2 | 3.2 | 0.00 | 0.28 | 0.28 | 64 | 1015.2 |
| 20260905151945 | 27 | 233 | 0.0 | 3.2 | 0.00 | 0.28 | 0.28 | 67 | 1015.0 |
| 20260905151441 | 27 | 154 | 0.0 | 6.4 | 0.00 | 0.28 | 0.28 | 66 | 1015.0 |
| 20260905150936 | 26 | 175 | 3.2 | 3.2 | 0.00 | 0.28 | 0.28 | 68 | 1014.9 |
| 20260905150436 | 26 | 124 | 0.0 | 1.6 | 0.00 | 0.28 | 0.28 | 71 | 1015.1 |
| 20260905145933 | 25 | 257 | 0.0 | 3.2 | 0.00 | 0.28 | 0.28 | 74 | 1014.9 |
| 20260905145433 | 25 | 150 | 0.0 | 4.8 | 0.00 | 0.28 | 0.28 | 72 | 1014.9 |
| 20260905144932 | 25 | 147 | 8.0 | 8.0 | 0.00 | 0.28 | 0.28 | 72 | 1014.9 |
| 20260905144428 | 25 | 356 | 0.0 | 3.2 | 0.00 | 0.28 | 0.28 | 75 | 1015.1 |
| 20260905143927 | 24 | 166 | 3.2 | 3.2 | 0.00 | 0.28 | 0.28 | 78 | 1015.2 |
| 20260905143426 | 23 | 77 | 0.0 | 6.4 | 0.05 | 0.28 | 0.28 | 79 | 1015.2 |
| 20260905142926 | 23 | 111 | 0.0 | 3.2 | 0.18 | 0.28 | 0.28 | 81 | 1015.3 |
| 20260905142426 | 23 | 223 | 1.6 | 3.2 | 0.18 | 0.28 | 0.28 | 83 | 1015.1 |
| 20260905141922 | 23 | 224 | 0.0 | 8.0 | 0.13 | 0.25 | 0.25 | 80 | 1015.3 |
| 20260905141416 | 22 | 122 | 1.6 | 6.4 | 0.18 | 0.23 | 0.23 | 80 | 1015.1 |
| 20260905140912 | 22 | 52 | 0.0 | 3.2 | 0.18 | 0.23 | 0.23 | 83 | 1015.4 |
| 20260905140407 | 22 | 96 | 0.0 | 3.2 | 0.13 | 0.20 | 0.20 | 83 | 1015.4 |
| 20260905135906 | 22 | 121 | 1.6 | 3.2 | 0.30 | 0.20 | 0.20 | 83 | 1015.3 |
| 20260905135401 | 22 | 152 | 3.2 | 4.8 | 0.36 | 0.18 | 0.18 | 84 | 1015.4 |
| 20260905134857 | 22 | 89 | 0.0 | 3.2 | 0.36 | 0.15 | 0.15 | 82 | 1015.3 |
| 20260905134356 | 22 | 97 | 1.6 | 4.8 | 0.36 | 0.13 | 0.13 | 81 | 1015.2 |
| 20260905133850 | 22 | 136 | 1.6 | 4.8 | 0.30 | 0.10 | 0.10 | 81 | 1015.3 |
| 20260905133346 | 23 | 168 | 1.6 | 3.2 | 0.36 | 0.05 | 0.05 | 80 | 1015.4 |
| 20260905132845 | 23 | 101 | 0.0 | 8.0 | 0.23 | 0.05 | 0.05 | 75 | 1015.5 |
| 20260905132341 | 24 | 30 | 3.2 | 3.2 | 0.00 | 0.00 | 0.00 | 72 | 1015.4 |
| 20260905131834 | 24 | 117 | 0.0 | 1.6 | 0.00 | 0.00 | 0.00 | 72 | 1015.4 |
| 20260905131330 | 24 | 117 | 0.0 | 1.6 | 0.00 | 0.00 | 0.00 | 72 | 1015.5 |
| 20260905130825 | 24 | 65 | 0.0 | 3.2 | 0.00 | 0.00 | 0.00 | 72 | 1015.3 |
| 20260905130323 | 24 | 243 | 0.0 | 3.2 | 0.00 | 0.00 | 0.00 | 70 | 1015.4 |
| 20260905125819 | 25 | 89 | 3.2 | 3.2 | 0.00 | 0.00 | 0.00 | 69 | 1015.3 |
| 20260905125315 | 25 | 122 | 4.8 | 4.8 | 0.00 | 0.00 | 0.00 | 69 | 1015.3 |
| 20260905124810 | 24 | 80 | 1.6 | 3.2 | 0.00 | 0.00 | 0.00 | 71 | 1015.3 |
| 20260905124306 | 23 | 89 | 0.0 | 3.2 | 0.00 | 0.00 | 0.00 | 75 | 1015.4 |
| 20260905123802 | 23 | 54 | 3.2 | 3.2 | 0.00 | 0.00 | 0.00 | 76 | 1015.1 |
| 20260905123259 | 22 | 26 | 3.2 | 4.8 | 0.00 | 0.00 | 0.00 | 76 | 1015.2 |
| 20260905122758 | 22 | 121 | 3.2 | 3.2 | 0.00 | 0.00 | 0.00 | 76 | 1015.4 |
| 20260905122257 | 22 | 73 | 3.2 | 3.2 | 0.00 | 0.00 | 0.00 | 77 | 1015.3 |
| 20260905121753 | 22 | 6 | 1.6 | 4.8 | 0.00 | 0.00 | 0.00 | 78 | 1015.4 |
| 20260905121250 | 22 | 92 | 3.2 | 3.2 | 0.00 | 0.00 | 0.00 | 78 | 1015.5 |
| 20260905120747 | 22 | 78 | 3.2 | 4.8 | 0.00 | 0.00 | 0.00 | 78 | 1015.3 |
| 20260905120242 | 22 | 93 | 1.6 | 4.8 | 0.00 | 0.00 | 0.00 | 78 | 1015.2 |
| 20260905115737 | 22 | 89 | 3.2 | 3.2 | 0.00 | 0.00 | 0.00 | 77 | 1015.1 |
| 20260905115237 | 22 | 101 | 3.2 | 3.2 | 0.00 | 0.00 | 0.00 | 77 | 1015.1 |
| 20260905114736 | 22 | 99 | 1.6 | 3.2 | 0.00 | 0.00 | 0.00 | 76 | 1015.3 |
| 20260905114235 | 22 | 64 | 1.6 | 3.2 | 0.00 | 0.00 | 0.00 | 77 | 1015.1 |
| 20260905113735 | 23 | 83 | 3.2 | 3.2 | 0.00 | 0.00 | 0.00 | 77 | 1014.9 |
| 20260905113231 | 23 | 25 | 1.6 | 4.8 | 0.00 | 0.00 | 0.00 | 76 | 1014.9 |
| 20260905112726 | 23 | 328 | 0.0 | 3.2 | 0.00 | 0.00 | 0.00 | 77 | 1015.0 |
| 20260905112226 | 23 | 110 | 4.8 | 4.8 | 0.00 | 0.00 | 0.00 | 76 | 1014.8 |
| 20260905111721 | 23 | 60 | 3.2 | 6.4 | 0.00 | 0.00 | 0.00 | 76 | 1014.7 |
| 20260905111221 | 23 | 89 | 3.2 | 3.2 | 0.00 | 0.00 | 0.00 | 75 | 1014.9 |
| 20260905110720 | 23 | 26 | 3.2 | 4.8 | 0.00 | 0.00 | 0.00 | 75 | 1015.0 |
| 20260905110215 | 24 | 40 | 3.2 | 8.0 | 0.00 | 0.00 | 0.00 | 74 | 1014.6 |
| 20260905105710 | 25 | 106 | 3.2 | 3.2 | 0.00 | 0.00 | 0.00 | 82 | 1014.5 |
| 20260905105209 | 25 | 106 | 4.8 | 4.8 | 0.00 | 0.00 | 0.00 | 84 | 1014.6 |
| 20260905104704 | 25 | 60 | 0.0 | 4.8 | 0.00 | 0.00 | 0.00 | 88 | 1014.4 |
| 20260905104200 | -17 | 0.0 | 0.0 | 0.00 | 0.00 | 0.00 | 1013.7 | ||
| 20260905103655 | 24 | 104 | 0.0 | 0.0 | 0.00 | 0.00 | 0.00 | 91 | 1013.7 |
| 20260905103150 | 24 | 104 | 0.0 | 0.0 | 0.00 | 0.00 | 0.00 | 91 | 1013.8 |
| 20260905102646 | -17 | 0.0 | 0.0 | 0.00 | 0.00 | 0.00 | 1013.6 | ||
| 20260905102143 | -17 | 0.0 | 0.0 | 0.00 | 0.00 | 0.00 | 1013.7 | ||
| 20260905101641 | -17 | 0.0 | 0.0 | 0.00 | 0.00 | 0.00 | 1013.4 | ||
| 20260905101139 | -17 | 0.0 | 0.0 | 0.00 | 0.00 | 0.00 | 1013.6 | ||
| 20260905100636 | 24 | 104 | 0.0 | 0.0 | 0.00 | 0.00 | 0.00 | 91 | 1013.3 |
| 20260905100131 | 24 | 104 | 0.0 | 0.0 | 0.00 | 0.00 | 0.00 | 91 | 1013.4 |
| 20260905095630 | 24 | 104 | 0.0 | 0.0 | 0.00 | 0.00 | 0.00 | 91 | 1013.6 |
| 20260905095126 | 24 | 104 | 0.0 | 0.0 | 0.00 | 0.00 | 0.00 | 90 | 1013.4 |
| 20260905094621 | 24 | 89 | 0.0 | 0.0 | 0.00 | 0.00 | 0.00 | 90 | 1013.5 |
| 20260905094120 | 24 | 117 | 0.0 | 0.0 | 0.00 | 0.00 | 0.00 | 89 | 1013.4 |
| 20260905093620 | 24 | 117 | 0.0 | 0.0 | 0.00 | 0.00 | 0.00 | 89 | 1013.2 |
| 20260905093117 | 24 | 62 | 0.0 | 0.0 | 0.00 | 0.00 | 0.00 | 89 | 1013.4 |
| 20260905092616 | 25 | 62 | 0.0 | 0.0 | 0.00 | 0.00 | 0.00 | 89 | 1013.3 |
| 20260905092112 | 25 | 117 | 0.0 | 0.0 | 0.00 | 0.00 | 0.00 | 89 | 1013.1 |
| 20260905091611 | -17 | 0.0 | 0.0 | 0.00 | 0.00 | 0.00 | 1013.4 | ||
| 20260905091106 | -17 | 0.0 | 0.0 | 0.00 | 0.00 | 0.00 | 1013.1 | ||
| 20260905090606 | -17 | 0.0 | 0.0 | 0.00 | 0.00 | 0.00 | 1013.5 | ||
| 20260905085600 | 25 | 89 | 0.0 | 0.0 | 0.00 | 0.00 | 0.00 | 89 | 1013.3 |
| 20260905085056 | 25 | 89 | 0.0 | 0.0 | 0.00 | 0.00 | 0.00 | 89 | 1013.4 |
| 20260905084555 | 25 | 89 | 0.0 | 0.0 | 0.00 | 0.00 | 0.00 | 89 | 1013.6 |
| 20260905084051 | -17 | 0.0 | 0.0 | 0.00 | 0.00 | 0.00 | 1013.5 | ||
| 20260905083545 | 25 | 103 | 0.0 | 0.0 | 0.00 | 0.00 | 0.00 | 87 | 1013.4 |
| 20260905083042 | 25 | 103 | 0.0 | 0.0 | 0.00 | 0.00 | 0.00 | 87 | 1013.2 |
| 20260905082537 | 25 | 103 | 0.0 | 0.0 | 0.00 | 0.00 | 0.00 | 87 | 1013.3 |
| 20260905082033 | 25 | 101 | 0.0 | 1.6 | 0.00 | 0.00 | 0.00 | 87 | 1013.3 |
| 20260905081527 | 25 | 91 | 1.6 | 1.6 | 0.00 | 0.00 | 0.00 | 87 | 1013.3 |
| 20260905081027 | -17 | 0.0 | 0.0 | 0.00 | 0.00 | 0.00 | 1013.1 | ||
| 20260905080527 | -17 | 0.0 | 0.0 | 0.00 | 0.00 | 0.00 | 1013.1 | ||
| 20260905080022 | -17 | 0.0 | 0.0 | 0.00 | 0.00 | 0.00 | 1012.7 | ||
| 20260905075520 | 25 | 104 | 0.0 | 0.0 | 0.00 | 0.00 | 0.00 | 87 | 1012.8 |
| 20260905075015 | 25 | 104 | 0.0 | 0.0 | 0.00 | 0.00 | 0.00 | 87 | 1012.6 |
| 20260905074509 | -17 | 0.0 | 0.0 | 0.00 | 0.00 | 0.00 | 1012.7 | ||
| 20260905074005 | -17 | 0.0 | 0.0 | 0.00 | 0.00 | 0.00 | 1012.7 | ||
| 20260905073500 | -17 | 0.0 | 0.0 | 0.00 | 0.00 | 0.00 | 1012.6 | ||
| 20260905072955 | -17 | 0.0 | 0.0 | 0.00 | 0.00 | 0.00 | 1012.9 | ||
| 20260905072449 | 25 | 107 | 0.0 | 0.0 | 0.00 | 0.00 | 0.00 | 86 | 1012.6 |
| 20260905071945 | 25 | 107 | 0.0 | 0.0 | 0.00 | 0.00 | 0.00 | 86 | 1012.7 |
| 20260905071442 | 25 | 66 | 0.0 | 0.0 | 0.00 | 0.00 | 0.00 | 86 | 1012.9 |
| 20260905070941 | 25 | 111 | 0.0 | 0.0 | 0.00 | 0.00 | 0.00 | 86 | 1012.7 |
| 20260905070438 | 25 | 111 | 0.0 | 0.0 | 0.00 | 0.00 | 0.00 | 86 | 1012.8 |
| 20260905065937 | 25 | 117 | 0.0 | 1.6 | 0.00 | 0.00 | 0.00 | 86 | 1012.8 |
| 20260905065435 | 25 | 103 | 0.0 | 0.0 | 0.00 | 0.00 | 0.00 | 86 | 1012.8 |
| 20260905064931 | 25 | 104 | 0.0 | 0.0 | 0.00 | 0.00 | 0.00 | 86 | 1013.0 |
| 20260905064426 | -17 | 0.0 | 0.0 | 0.00 | 0.00 | 0.00 | 1013.0 | ||
| 20260905063926 | 25 | 113 | 0.0 | 0.0 | 0.00 | 0.00 | 0.00 | 86 | 1013.2 |
| 20260905063421 | 25 | 113 | 0.0 | 0.0 | 0.00 | 0.00 | 0.00 | 86 | 1013.3 |
| 20260905062918 | -17 | 0.0 | 0.0 | 0.00 | 0.00 | 0.00 | 1013.4 | ||
| 20260905062412 | -17 | 0.0 | 0.0 | 0.00 | 0.00 | 0.00 | 1013.6 | ||
| 20260905061907 | 25 | 104 | 0.0 | 0.0 | 0.00 | 0.00 | 0.00 | 86 | 1013.6 |
| 20260905061407 | 25 | 104 | 0.0 | 0.0 | 0.00 | 0.00 | 0.00 | 86 | 1013.7 |
| 20260905060906 | 25 | 104 | 0.0 | 0.0 | 0.00 | 0.00 | 0.00 | 86 | 1013.5 |
| 20260905060403 | 25 | 75 | 0.0 | 0.0 | 0.00 | 0.00 | 0.00 | 86 | 1013.4 |
| 20260905055902 | 25 | 99 | 0.0 | 0.0 | 0.00 | 0.00 | 0.00 | 85 | 1013.7 |
| 20260905055357 | 25 | 129 | 0.0 | 0.0 | 0.00 | 0.00 | 0.00 | 85 | 1013.7 |
| 20260905054856 | 25 | 129 | 0.0 | 0.0 | 0.00 | 0.00 | 0.00 | 85 | 1013.9 |
| 20260905054353 | -17 | 0.0 | 0.0 | 0.00 | 0.00 | 0.00 | 1013.7 | ||
| 20260905053853 | -17 | 0.0 | 0.0 | 0.00 | 0.00 | 0.00 | 1013.8 | ||
| 20260905053353 | -17 | 0.0 | 0.0 | 0.00 | 0.00 | 0.00 | 1014.1 | ||
| 20260905052848 | -17 | 0.0 | 0.0 | 0.00 | 0.00 | 0.00 | 1013.9 |